Clinton, OK

12:50 AM CST on February 24, 2018 (GMT -0600)
Clinton Municipal

Weather History for KCLK - October, 2012

Change the Weather History Date:

Tuesday, October 23, 2012

  Actual Average (KCSM) Record (KCSM)
Temperature  
Mean Temperature 74 °F -  
Max Temperature 89 °F 68 °F 90 °F (2003)
Min Temperature 60 °F 46 °F 32 °F (2005)
Cooling Degree Days 10    
Growing Degree Days 24 (Base 50)    
Moisture  
Dew Point 57 °F    
Average Humidity 59    
Maximum Humidity 94    
Minimum Humidity 21    
Precipitation  
Precipitation 0.00 in - - ()
Sea Level Pressure  
Sea Level Pressure 29.81 in    
Wind  
Wind Speed 15 mph (South)    
Max Wind Speed 28 mph    
Max Gust Speed 36 mph    
Visibility 10 miles    
Events      
Averages and records for this station are not official NWS values.
T = Trace of Precipitation, MM = Missing Value Source: NWS Daily Summary

Daily Weather History Graph

Daily Weather History Graph

Search for Another Location

Airport or City:

Trip Planner

Search our weather history database for the weather conditions in past years. The results will help you decide how hot, cold, wet, or windy it might be!

Date:

Astronomy

Oct. 23, 2012 Rise Set
Actual Time 7:49 AM CDT 6:49 PM CDT
Civil Twilight 7:23 AM CDT 7:15 PM CDT
Nautical Twilight 6:53 AM CDT 7:45 PM CDT
Astronomical Twilight 6:24 AM CDT 8:15 PM CDT
Moon 3:23 PM CDT (10/23) 1:55 AM CDT (10/23)
Length of Visible Light 11h 52m
Length of Day
11h 00m
Waxing Gibbous, 67% of the Moon is Illuminated
Oct 23
Waxing Gibbous
Oct 29
Full
Nov 6
Last Quarter
Nov 13
New
Nov 20
First Quarter

Hourly Weather History & Observations

Time (CDT) Temp. Heat Index Dew Point Humidity Pressure Visibility Wind Dir Wind Speed Gust Speed Precip Events Conditions
12:35 AM 64.4 °F - 59.0 °F 83% 29.85 in 10.0 mi SSE 10.4 mph - N/A   Clear
1:15 AM 62.6 °F - 59.0 °F 88% 29.85 in 10.0 mi SSE 9.2 mph - N/A   Clear
1:35 AM 62.6 °F - 59.0 °F 88% 29.84 in 10.0 mi SSE 10.4 mph - N/A   Clear
1:55 AM 62.6 °F - 59.0 °F 88% 29.84 in 10.0 mi SSE 10.4 mph - N/A   Clear
2:35 AM 62.6 °F - 59.0 °F 88% 29.83 in 10.0 mi SSE 10.4 mph - N/A   Clear
2:55 AM 62.6 °F - 59.0 °F 88% 29.83 in 10.0 mi SSE 9.2 mph - N/A   Clear
3:15 AM 62.6 °F - 59.0 °F 88% 29.82 in 10.0 mi SSE 11.5 mph - N/A   Clear
3:35 AM 62.6 °F - 59.0 °F 88% 29.82 in 10.0 mi SSE 10.4 mph - N/A   Clear
3:55 AM 60.8 °F - 59.0 °F 94% 29.81 in 10.0 mi South 10.4 mph - N/A   Clear
4:15 AM 62.6 °F - 59.0 °F 88% 29.81 in 10.0 mi South 11.5 mph - N/A   Clear
4:35 AM 62.6 °F - 59.0 °F 88% 29.81 in 10.0 mi South 11.5 mph - N/A   Clear
4:55 AM 62.6 °F - 59.0 °F 88% 29.81 in 10.0 mi SSE 11.5 mph - N/A   Clear
5:15 AM 62.6 °F - 59.0 °F 88% 29.81 in 10.0 mi South 10.4 mph - N/A   Clear
5:55 AM 62.6 °F - 59.0 °F 88% 29.82 in 10.0 mi SSE 11.5 mph - N/A   Clear
6:35 AM 62.6 °F - 60.8 °F 94% 29.83 in 10.0 mi SSE 10.4 mph - N/A   Scattered Clouds
6:55 AM 62.6 °F - 60.8 °F 94% 29.83 in 10.0 mi SSE 10.4 mph - N/A   Mostly Cloudy
7:15 AM 62.6 °F - 60.8 °F 94% 29.83 in 10.0 mi SSE 11.5 mph 17.3 mph N/A   Mostly Cloudy
8:55 AM 66.2 °F - 60.8 °F 83% 29.84 in 10.0 mi South 17.3 mph - N/A   Clear
9:35 AM 69.8 °F - 60.8 °F 73% 29.84 in 10.0 mi South 19.6 mph 26.5 mph N/A   Clear
10:15 AM 71.6 °F - 60.8 °F 69% 29.84 in 10.0 mi SSW 21.9 mph 28.8 mph N/A   Clear
10:35 AM 73.4 °F - 60.8 °F 65% 29.84 in 10.0 mi SSW 23.0 mph 28.8 mph N/A   Clear
10:55 AM 77.0 °F - 59.0 °F 54% 29.84 in 10.0 mi SSW 26.5 mph 33.4 mph N/A   Clear
11:15 AM 78.8 °F - 59.0 °F 51% 29.83 in 10.0 mi SSW 27.6 mph 35.7 mph N/A   Clear
11:35 AM 80.6 °F 81.1 °F 59.0 °F 48% 29.83 in 10.0 mi SSW 25.3 mph 31.1 mph N/A   Clear
11:55 AM 80.6 °F 80.8 °F 57.2 °F 45% 29.82 in 10.0 mi SSW 27.6 mph 35.7 mph N/A   Clear
12:15 PM 82.4 °F 81.7 °F 55.4 °F 39% 29.82 in 10.0 mi SSW 21.9 mph 28.8 mph N/A   Clear
12:35 PM 82.4 °F 81.4 °F 53.6 °F 37% 29.82 in 10.0 mi SSW 18.4 mph 31.1 mph N/A   Clear
12:55 PM 84.2 °F 82.8 °F 53.6 °F 35% 29.81 in 10.0 mi SSW 21.9 mph 26.5 mph N/A   Clear
1:15 PM 86.0 °F - 50.0 °F 29% 29.81 in 10.0 mi SSW 19.6 mph 26.5 mph N/A   Clear
1:35 PM 87.8 °F - 48.2 °F 25% 29.80 in 10.0 mi SSW 18.4 mph 29.9 mph N/A   Clear
1:55 PM 87.8 °F - 48.2 °F 25% 29.79 in 10.0 mi SSW 20.7 mph 29.9 mph N/A   Clear
2:15 PM 87.8 °F - 46.4 °F 24% 29.78 in 10.0 mi SW 21.9 mph 28.8 mph N/A   Clear
2:35 PM 87.8 °F - 48.2 °F 25% 29.77 in 10.0 mi SSW 24.2 mph 32.2 mph N/A   Clear
2:55 PM 89.6 °F - 48.2 °F 24% 29.76 in 10.0 mi SSW 24.2 mph 28.8 mph N/A   Clear
3:15 PM 89.6 °F - 48.2 °F 24% 29.75 in 10.0 mi SSW 24.2 mph 32.2 mph N/A   Clear
3:35 PM 89.6 °F - 46.4 °F 22% 29.75 in 10.0 mi SSW 23.0 mph 26.5 mph N/A   Clear
3:55 PM 89.6 °F - 46.4 °F 22% 29.75 in 10.0 mi South 18.4 mph 28.8 mph N/A   Clear
4:15 PM 89.6 °F - 46.4 °F 22% 29.75 in 10.0 mi South 21.9 mph 32.2 mph N/A   Clear
4:35 PM 89.6 °F - 44.6 °F 21% 29.75 in 10.0 mi South 19.6 mph 32.2 mph N/A   Clear
4:55 PM 89.6 °F - 44.6 °F 21% 29.75 in 10.0 mi SSW 21.9 mph 31.1 mph N/A   Clear
5:15 PM 87.8 °F - 48.2 °F 25% 29.76 in 10.0 mi SSW 19.6 mph 29.9 mph N/A   Clear
5:35 PM 87.8 °F - 50.0 °F 27% 29.76 in 10.0 mi South 23.0 mph 28.8 mph N/A   Clear
5:55 PM 86.0 °F 84.2 °F 53.6 °F 33% 29.76 in 10.0 mi South 17.3 mph 25.3 mph N/A   Clear
6:15 PM 86.0 °F 84.2 °F 53.6 °F 33% 29.76 in 10.0 mi South 18.4 mph 24.2 mph N/A   Clear
6:35 PM 82.4 °F 81.7 °F 55.4 °F 39% 29.76 in 10.0 mi South 19.6 mph 25.3 mph N/A   Clear
6:55 PM 80.6 °F 81.1 °F 59.0 °F 48% 29.77 in 10.0 mi South 19.6 mph - N/A   Clear
7:15 PM 80.6 °F 81.5 °F 60.8 °F 51% 29.78 in 10.0 mi South 19.6 mph - N/A   Clear
7:35 PM 78.8 °F - 62.6 °F 57% 29.79 in 10.0 mi South 20.7 mph 25.3 mph N/A   Clear
7:55 PM 78.8 °F - 60.8 °F 54% 29.80 in 10.0 mi South 18.4 mph 25.3 mph N/A   Clear
8:15 PM 77.0 °F - 60.8 °F 57% 29.81 in 10.0 mi South 16.1 mph - N/A   Clear
8:35 PM 77.0 °F - 62.6 °F 61% 29.81 in 10.0 mi SSE 17.3 mph 23.0 mph N/A   Clear
8:55 PM 75.2 °F - 62.6 °F 65% 29.82 in 10.0 mi SSE 16.1 mph 21.9 mph N/A   Clear
9:15 PM 73.4 °F - 62.6 °F 69% 29.82 in 10.0 mi SSE 18.4 mph - N/A   Clear
9:35 PM 73.4 °F - 62.6 °F 69% 29.83 in 10.0 mi South 15.0 mph - N/A   Clear
9:55 PM 71.6 °F - 62.6 °F 73% 29.84 in 10.0 mi SSE 13.8 mph - N/A   Clear
10:15 PM 71.6 °F - 60.8 °F 69% 29.83 in 10.0 mi South 17.3 mph - N/A   Clear
10:35 PM 71.6 °F - 60.8 °F 69% 29.83 in 10.0 mi South 15.0 mph - N/A   Clear
10:55 PM 71.6 °F - 60.8 °F 69% 29.83 in 10.0 mi South 16.1 mph - N/A   Clear
11:15 PM 71.6 °F - 60.8 °F 69% 29.84 in 10.0 mi South 15.0 mph - N/A   Clear
11:35 PM 71.6 °F - 60.8 °F 69% 29.84 in 10.0 mi South 15.0 mph - N/A   Clear
11:55 PM 71.6 °F - 60.8 °F 69% 29.83 in 10.0 mi South 15.0 mph - N/A   Clear